Погода в Виламоре

Португалия     37°06′14″N   8°07′18″W
темп.,
°C
ветер,
м/с
пор.,
м/с
влажн.,
%
обл.,
%
осадки,
мм/ч
давл.,
гПа
погр.,
м
16 октября, сб
сб1601:00+20сз455469 0.0 1018114
04:00+20ссз23495 0.0 101771
07:00+19с224229 0.0 101771
10:00+21ссз224080 0.0 1019140
13:00+24зюз4443100 0.0 1018426
16:00+23зюз6753100 0.0 1016533
19:00+23сз6847100 0.0 1016100
22:00+21ссз565496 0.0 101892
17 октября, вс
вс1701:00+20ссз3455100 0.0 101889
04:00+20ссз225481 0.0 101769
07:00+20ссв2253100 0.0 101873
10:00+21с1148100 0.0 1019102
13:00+22ююз3248100 0.0 1018343
16:00+22зюз4453100 0.0 1017186
19:00+22з4564100 0.0 101884
22:00+22ссз3463100 0.0 101959
18 октября, пн
пн1801:00+22ссв3373100 0.0 101935
04:00+21ссв2273100 0.0 101914
07:00+21св2274100 0.0 101923
10:00+22в567065 0.0 1020250
13:00+22юв557381 0.0 1020363
16:00+22ююв3373100 0.0 1019200
19:00+21в1173100 0.0 101916
22:00+21ссз2271100 0.0 102013
19 октября, вт
вт1901:00+21в446916 0.0 102061
04:00+20в34765 0.0 1020128
07:00+20св33726 0.0 102066
10:00+22всв336515 0.0 1021124
13:00+23вюв566751 0.0 1021350
16:00+23вюв456183 0.0 1019282
19:00+22всв33645 0.0 102021
22:00+21с22705 0.0 102014
20 октября, ср
ср2001:00+20св33701 0.0 102159
04:00+20с22720 0.0 102041
07:00+19ссз22690 0.0 102052
10:00+21ссз23600 0.0 1022174
13:00+23ююз33551 0.0 1022484
16:00+23юз66654 0.0 1020307
19:00+24ссз68640 0.0 1020124
22:00+21ссз713640 0.0 1021346